map of RAO home
Great Circle Mapper logo
RAO - Airport
Location
City:  Riberão Preto, São Paulo, Brazil
Name:Leite Lopes
ICAO / IATA:SBRP / RAO

Details
Type:Airport (Aerodrome, Airfield)
Use:Public/Civil
Latitude:21°08'03"S (-21.134166)
Longitude:47°46'27"W (-47.774188)
Datum:WGS 1984
Elevation:1802 ft (549 m)
Variation:20.91°W (WMM2015 magnetic declination)
-0.12° annual change
Runways:1
Longest:6890 × 115 ft (2100 × 35 m), paved

Time
Time Zone:UTC-3 (DST-2)
Local Time:

Weather
METAR:SBRP 061300Z 11010KT CAVOK 20/13 Q1020
TAF:SBRP 060900Z 0612/0712 12005KT CAVOK TX26/0617Z TN14/0709Z
BECMG 0612/0614 06005KT FEW035
BECMG 0620/0622 14005KT CAVOK
BECMG 0702/0704 7000 PROB30 0709/0712 10005KT 6000 RA BKN020
RMK PHH

Related Locations
Nearby:
Farthest:MMD: 12100 mi / 19474 km
Minami Daito Jima, Okinawa, JP

Find:

   beyond  
but within

Other Information
Maps:
NOTAMs:
Links:
Sources:

  
flag of Brazil
flag of São Paulo
  

Sectional Chart

Flight Planning
at skyvector.com

Satellite Image

Google Maps Satellite view

 

Copyright © 2004-2015 Karl L. Swartz. All rights reserved.
The Great Circle Mapper name and logo are trademarks of the Great Circle Mapper.
All other trademarks mentioned herein belong to their respective owners.
Please see credits for attibutions and further copyright information.

  Follow gcmap on Facebook Follow gcmap on Twitter Follow gcmap on Google+

hCard Microformat

Geo Microformat